Location: Boiro
(42.6475°N, 8.8834°W)
Time: 18:48:08
(UTC+01:00)

Tiros 1 - Pass Details

Date: 13 December 2021
Orbit: 630 x 663 km, 48.4° (Epoch: 20 January)

Event Time Altitude Azimuth Distance (km) Brightness Sun altitude
Rises 21:55:04 0° 296° (WNW) 2,931 11.3 -41.8°
Enters shadow 21:56:51 - 295° (WNW) 2,234 10.5 -42.1°
Reaches altitude 10° 21:57:23 10° 294° (WNW) 2,025 - -42.2°
Maximum altitude 22:02:02 73° 211° (SSW) 672 - -43.1°
Drops below altitude 10° 22:06:43 10° 126° (SE) 2,039 - -43.9°
Sets 22:09:04 0° 125° (SE) 2,952 - -44.4°
